Regional Weather Roundup
Issued by NWS

Home | Current Version | Previous Version | Text Only | Print | Product List | Glossary Off
Versions: 1 2 3 4 5 6 7 8 9 10 11 12 13 14 15 16 17 18 19 20 21 22 23 24 25 26 27 28 29 30 31 32 33 34 35 36 37 38 39 40 41 42 43 44 45 46 47 48 49 50

000
ASUS43 KLOT 180009
RWRIL

ILLINOIS REGIONAL WEATHER ROUNDUP
NATIONAL WEATHER SERVICE CHICAGO/ROMEOVILLE IL
700 PM CDT TUE OCT 17 2017

NOTE: "FAIR" INDICATES FEW OR NO CLOUDS BELOW 12,000 FEET WITH NO
SIGNIFICANT WEATHER AND/OR OBSTRUCTIONS TO VISIBILITY.

* THESE STATIONS ARE NOT UNDER NWS QUALITY CONTROL. THEY ALSO MAY NOT
  REPORT WEATHER SUCH AS PRECIPITATION OR FOG.

ILZ001-002-007-009-015-016-024-180100-
NORTHWEST ILLINOIS

CITY           SKY/WX    TMP DP  RH WIND       PRES   REMARKS
MOLINE         CLEAR     58  44  60 S3        30.10R
6HR MIN TEMP:  58; 6HR MAX TEMP:  71;

STERLING*      CLEAR     62  42  47 VRB3        N/A
SAVANNA*       CLEAR     60  44  54 S6        30.09S
$$

ILZ003-004-008-010-011-017-018-180100-
NORTH CENTRAL ILLINOIS

CITY           SKY/WX    TMP DP  RH WIND       PRES   REMARKS
ROCKFORD       PTCLDY    58  42  55 S8        30.11R
6HR MIN TEMP:  58; 6HR MAX TEMP:  73;

FREEPORT*      CLEAR     56  40  54 S6        30.11S
ROCHELLE*      CLEAR     57  43  59 S7        30.12S
DE KALB*       CLEAR     58  42  54 S9        30.13R
PERU*          CLEAR     58  40  51 S7        30.15R
$$

ILZ005-006-012>014-019>023-180100-
NORTHEAST ILLINOIS

CITY           SKY/WX    TMP DP  RH WIND       PRES   REMARKS
CHICAGO-OHARE  PTCLDY    64  41  42 SW10      30.11S
6HR MIN TEMP:  64; 6HR MAX TEMP:  70;

CHICAGO-MIDWAY CLEAR     65  40  39 SW12G21   30.13R
6HR MIN TEMP:  65; 6HR MAX TEMP:  71;

AURORA         CLEAR     59  42  53 S8        30.14R
6HR MIN TEMP:  59; 6HR MAX TEMP:  69;

LANSING*       CLEAR     59  44  58 SW9       30.16R
JOLIET*        CLEAR     63  42  47 S6        30.15R
WAUKEGAN       CLEAR     59  44  57 SW9       30.09R
6HR MIN TEMP:  59; 6HR MAX TEMP:  72;

DUPAGE AIRPORT CLEAR     56  44  64 S9        30.12R
6HR MIN TEMP:  56; 6HR MAX TEMP:  69;

KANKAKEE*      CLEAR     58  40  50 S6        30.18R
WHEELING       CLEAR     64  42  44 S8        30.12R
6HR MIN TEMP:  64; 6HR MAX TEMP:  71;

MORRIS*        CLEAR     58  40  51 S6        30.14R
ROMEOVILLE*    CLEAR     60  42  50 SW9       30.14S
NORTHERLY ISL    N/A     66  36  32 S9          N/A
$$

LMZ740>746-180100-
SOUTHERN LAKE MICHIGAN

STATION/POSITION SKY/WX   TEMP    WIND        PRES    VSBY  WAVE
                          AIR SEA DIR/SP/G                  HT/PER
                          (F)     (DEG/KT/KT) (MB)    (MI)  (FT/S)
SOUTHERN BUOY              64 61  220/ 14/ 17 1018.7          3/ 6
WILMETTE HARBOR            63 58  200/  8/ 10   N/A           1/ 3
HARRISON CRIB              68     210/ 15/ 17   N/A
BURNHAM HARBOR             65     190/  9/ 13   N/A
CALUMET HARBOR             65     200/  6/  9 1019.8R
BURNS HARBOR               64     190/  9/ 13 1021.0R
MICHIGAN CITY              64     180/ 10/ 12   N/A
MICHIGAN CITY 6N           61 58  190/  8/  8   N/A           2/ 3
ST. JOSEPH                 62 58  200/ 10/ 12 1020.8R         2/ 4
$$

ILZ025>027-034>036-040-047-049-050-058-095>099-180100-
WEST-CENTRAL ILLINOIS

CITY           SKY/WX    TMP DP  RH WIND       PRES   REMARKS
QUINCY         CLEAR     62  41  46 S8        30.13S
GALESBURG*     CLEAR     59  42  51 S7        30.14S
MACOMB*        CLEAR     58  41  52 S6        30.16R
JACKSONVILLE*  CLEAR     59  41  51 S6        30.16S
PITTSFIELD*    CLEAR     59  42  54 S3        30.16S
$$

ILZ028>032-037-038-041>044-048-051>054-059>061-180100-
CENTRAL ILLINOIS

CITY           SKY/WX    TMP DP  RH WIND       PRES   REMARKS
PONTIAC        CLEAR     61  41  48 S8        30.18R
BLOOMINGTON    CLEAR     54  40  59 S9        30.19R
DECATUR        CLEAR     57  39  51 S7        30.21R
PEORIA         CLEAR     58  40  51 S8        30.15S
6HR MIN TEMP:  58; 6HR MAX TEMP:  69;

LACON*         CLEAR     59  43  55 CALM      30.14R
LINCOLN*       CLEAR     59  42  53 S6        30.19R
SPRINGFIELD    CLEAR     59  41  51 S6        30.18R
6HR MIN TEMP:  59; 6HR MAX TEMP:  71;

TAYLORVILLE    CLEAR     56  38  52 S5        30.20S
6HR MIN TEMP:  56; 6HR MAX TEMP:  69;

$$

ILZ033-039-045-046-055>057-062-063-180100-
EAST-CENTRAL ILLINOIS

CITY           SKY/WX    TMP DP  RH WIND       PRES   REMARKS
CHAMPAIGN      CLEAR     54  39  57 S7        30.21R
DANVILLE*      CLEAR     55  39  55 S5        30.19R
RANTOUL*       CLEAR     55  44  66 S6        30.20R
MATTOON        CLEAR     58  42  55 S5        30.21R
PARIS*         CLEAR     51  40  68 S5        30.23R
$$

ILZ079-100>102-180100-
SOUTHWEST ILLINOIS

CITY           SKY/WX    TMP DP  RH WIND       PRES   REMARKS
ALTON          CLEAR     54  43  66 CALM      30.19S
BELLEVILLE     CLEAR     57  41  55 SE6       30.22S
CAHOKIA*       CLEAR     61  38  42 S5        30.19S
SPARTA*        CLEAR     59  40  48 SE3       30.22S
$$

ILZ064>066-069>071-074>076-080>082-084>086-088>090-092>094-180100-
SOUTH-CENTRAL ILLINOIS

CITY           SKY/WX    TMP DP  RH WIND       PRES   REMARKS
CARBONDALE     CLEAR     53  48  83 CALM      30.23R
6HR MIN TEMP:  53; 6HR MAX TEMP:  68;

CAIRO*         CLEAR     52  47  84 CALM      30.23S
EFFINGHAM*     CLEAR     53  43  68 CALM      30.23R
MARION         CLEAR     55  48  76 SE6       30.24S
MT. VERNON     CLEAR     52  45  77 CALM      30.23R
CENTRALIA*     CLEAR     57  42  57 SE5       30.21S
SALEM*         CLEAR     60  40  48 S3        30.22R
METROPOLIS*    CLEAR     55  46  72 CALM      30.24S
$$

ILZ067-068-072-073-078-083-087-091-180100-
SOUTHEAST ILLINOIS

CITY           SKY/WX    TMP DP  RH WIND       PRES   REMARKS
LAWRENCEVILLE  PTCLDY    56  45  66 S7        30.24S
FLORA*         PTCLDY    59  43  54 S7        30.23R
FAIRFIELD*     CLEAR     59  40  48 CALM      30.22S
HARRISBURG*    PTCLDY    55  45  68 CALM      30.24S
ROBINSON*      CLEAR     51  42  71 CALM      30.24R
CARMI*         CLEAR     51  42  71 SE5       30.24S
$$

ABBREVIATIONS USED IN REMARKS
   TC - TEMPERATURE IN CELSIUS
  WCI - WIND CHILL INDEX
   HX - HEAT INDEX
  VSB - VISIBILITY
$$




USA.gov is the U.S. government's official web portal to all federal, state and local government web resources and services.